Location: Newark
(47.5989°N, 4.6950°E)
Time: 01:11:27
(UTC+00:00)

ISS - Pass Details

Date: 28 November 2019
Orbit: 411 x 421 km, 51.6° (Epoch: 07 December)

Event Time Altitude Azimuth Distance (km) Brightness Sun altitude
Rises 17:23:28 0° 257° (WSW) 2,351 2.0 -14.7°
Reaches altitude 10° 17:25:34 10° 262° (W) 1,492 0.4 -15.0°
Maximum altitude 17:28:53 59° 342° (NNW) 488 -3.5 -15.5°
Enters shadow 17:30:05 34° 47° (NE) 707 -3.1 -15.7°
